Weather History for Twin Falls, ID

Change the Weather History Date:

Friday, December 6, 2013

  Actual Average Record
Temperature  
Mean Temperature 12 °F -  
Max Temperature 22 °F 39 °F 58 °F (1987)
Min Temperature 2 °F 20 °F -1 °F (1992)
Degree Days  
Heating Degree Days 53 36  
Month to date heating degree days 237 209  
Since 1 July heating degree days 1593 1647  
Cooling Degree Days 0 0  
Month to date cooling degree days 0 0  
Year to date cooling degree days 1138 680  
Moisture  
Dew Point 5 °F    
Average Humidity 70    
Maximum Humidity 83    
Minimum Humidity 56    
Precipitation  
Precipitation 0.00 in 0.04 in 0.30 in (2001)
Month to date precipitation 0.04 0.23  
Year to date precipitation 4.50 9.66  
Sea Level Pressure  
Sea Level Pressure 30.09 in    
Wind  
Wind Speed 7 mph (East)    
Max Wind Speed 13 mph    
Max Gust Speed 16 mph    
Visibility 10 miles    
Events      
T = Trace of Precipitation, MM = Missing Value Source: NWS Daily Summary

Daily Weather History Graph

Daily Weather History Graph

Search for Another Location

Airport:

Trip Planner

Search our weather history database for the weather conditions in past years. The results will help you decide how hot, cold, wet, or windy it might be!

Date:

Astronomy

Dec. 06, 2013 Rise Set
Actual Time 7:53 AM MST 5:04 PM MST
Civil Twilight 7:21 AM MST 5:36 PM MST
Nautical Twilight 6:46 AM MST 6:11 PM MST
Astronomical Twilight 6:12 AM MST 6:45 PM MST
Moon 10:58 AM MST (12/6) 9:45 PM MST (12/6)
Length of Visible Light 10h 15m
Length of Day
9h 11m
Waxing Crescent, 20% of the Moon is Illuminated
Dec 6
Waxing Crescent
Dec 9
First Quarter
Dec 17
Full
Dec 25
Last Quarter
Jan 1
New

Hourly Weather History & Observations

Time (MST) Temp. Windchill Dew Point Humidity Pressure Visibility Wind Dir Wind Speed Gust Speed Precip Events Conditions
12:53 AM 12.0 °F 4.1 °F 3.9 °F 70% 30.15 in 10.0 mi SSE 4.6 mph - N/A   Overcast
1:53 AM 15.1 °F 4.2 °F 3.0 °F 59% 30.13 in 10.0 mi SE 8.1 mph - N/A   Overcast
2:53 AM 12.9 °F 6.9 °F 3.9 °F 67% 30.13 in 10.0 mi SE 3.5 mph - N/A   Overcast
3:53 AM 12.9 °F 6.9 °F 5.0 °F 71% 30.14 in 10.0 mi North 3.5 mph - N/A   Overcast
4:53 AM 8.1 °F 1.4 °F 3.0 °F 80% 30.15 in 10.0 mi South 3.5 mph - N/A   Overcast
5:53 AM 9.0 °F 2.4 °F 3.0 °F 77% 30.17 in 10.0 mi West 3.5 mph - N/A   Overcast
6:53 AM 5.0 °F -2.1 °F -0.9 °F 76% 30.18 in 10.0 mi South 3.5 mph - N/A   Overcast
7:53 AM 8.1 °F -3.2 °F 1.9 °F 76% 30.17 in 10.0 mi East 6.9 mph - N/A   Overcast
8:53 AM 9.0 °F -2.2 °F 3.0 °F 77% 30.17 in 10.0 mi ESE 6.9 mph - N/A   Overcast
9:53 AM 12.9 °F 1.6 °F 5.0 °F 71% 30.16 in 10.0 mi East 8.1 mph - N/A   Mostly Cloudy
10:53 AM 16.0 °F 6.3 °F 6.1 °F 65% 30.16 in 10.0 mi ENE 6.9 mph - N/A   Mostly Cloudy
11:53 AM 19.0 °F 9.0 °F 7.0 °F 59% 30.14 in 10.0 mi ENE 8.1 mph - N/A   Mostly Cloudy
12:53 PM 19.9 °F 9.3 °F 8.1 °F 60% 30.12 in 10.0 mi NE 9.2 mph - N/A   Overcast
1:00 PM 21.0 °F 10.6 °F 8.1 °F 57% 30.01 in 10.0 mi NE 9.2 mph - N/A   Overcast
1:53 PM 21.9 °F 13.4 °F 10.0 °F 60% 30.08 in 10.0 mi East 6.9 mph - N/A   Overcast
2:06 PM 21.9 °F 13.4 °F 9.0 °F 58% 29.98 in 10.0 mi East 6.9 mph - N/A   Mostly Cloudy
2:53 PM 21.0 °F 11.4 °F 8.1 °F 57% 30.07 in 10.0 mi ENE 8.1 mph - N/A   Overcast
3:53 PM 21.0 °F 9.3 °F 10.0 °F 63% 30.06 in 10.0 mi NE 11.5 mph - N/A   Overcast
4:53 PM 19.0 °F 7.5 °F 10.0 °F 68% 30.07 in 10.0 mi ENE 10.4 mph - N/A   Scattered Clouds
5:53 PM 12.0 °F 2.7 °F 7.0 °F 80% 30.09 in 10.0 mi East 5.8 mph - N/A   Clear
6:53 PM 10.9 °F 1.4 °F 6.1 °F 81% 30.09 in 10.0 mi East 5.8 mph - N/A   Partly Cloudy
7:53 PM 10.9 °F 1.4 °F 3.0 °F 70% 30.06 in 10.0 mi East 5.8 mph - N/A   Scattered Clouds
8:53 PM 10.9 °F 1.4 °F 1.9 °F 67% 30.04 in 10.0 mi East 5.8 mph - N/A   Partly Cloudy
9:53 PM 9.0 °F -3.2 °F 1.0 °F 70% 30.00 in 10.0 mi ESE 8.1 mph - N/A   Scattered Clouds
10:53 PM 15.1 °F 7.7 °F 3.9 °F 61% 29.94 in 10.0 mi East 4.6 mph - N/A   Scattered Clouds
11:53 PM 14.0 °F 2.9 °F 5.0 °F 67% 29.93 in 10.0 mi WNW 8.1 mph - N/A   Overcast